• In Belarus
  • List of Countries
  • For 7 days
  • Water Temperature
  • Satellite Maps
  • Weather Map
  • Weather Widgets
  • user-avatar
    Login

    Hourly Weather Linz

    Today, 23 July, Tuesday

    Time Temperature Precipitation Wind Pressure Humidity
    00:00 +21°C° 0 mm 1 mps 739 mmHg 82%
    01:00 +20°C° 0 mm 1 mps 739 mmHg 83%
    02:00 +20°C° 0 mm 1 mps 739 mmHg 85%
    03:00 +20°C° 0 mm 1 mps 739 mmHg 86%
    04:00 +17°C° 0 mm 0 mps 738 mmHg 87%
    05:00 +18°C° 0 mm 0 mps 739 mmHg 84%
    06:00 +19°C° 0 mm 0 mps 739 mmHg 80%
    07:00 +21°C° 0 mm 0 mps 739 mmHg 77%
    08:00 +22°C° 0 mm 0 mps 739 mmHg 72%
    09:00 +24°C° 0 mm 0 mps 739 mmHg 67%
    10:00 +27°C° 0 mm 1 mps 739 mmHg 62%
    11:00 +28°C° 0 mm 1 mps 738 mmHg 58%
    12:00 +29°C° 0 mm 1 mps 738 mmHg 54%
    13:00 +30°C° 0 mm 1 mps 738 mmHg 51%
    14:00 +30°C° 0 mm 1 mps 737 mmHg 51%
    15:00 +30°C° 0 mm 1 mps 737 mmHg 51%
    16:00 +31°C° 0 mm 1 mps 737 mmHg 51%
    17:00 +29°C° 0 mm 1 mps 737 mmHg 57%
    18:00 +26°C° 0 mm 0 mps 737 mmHg 63%
    19:00 +24°C° 0 mm 0 mps 736 mmHg 70%
    20:00 +25°C° 0 mm 1 mps 737 mmHg 72%
    21:00 +24°C° 0 mm 1 mps 737 mmHg 74%
    22:00 +22°C° 0 mm 1 mps 737 mmHg 76%
    23:00 +22°C° 0 mm 1 mps 737 mmHg 77%

    Tomorrow, 24 July, Wednesday

    Time Temperature Precipitation Wind Pressure Humidity
    00:00 +21°C° 0 mm 1 mps 737 mmHg 78%
    01:00 +20°C° 0 mm 1 mps 737 mmHg 79%
    02:00 +20°C° 0 mm 1 mps 736 mmHg 80%
    03:00 +19°C° 0 mm 1 mps 736 mmHg 82%
    04:00 +19°C° 0 mm 1 mps 736 mmHg 83%
    05:00 +20°C° 0 mm 1 mps 736 mmHg 80%
    06:00 +21°C° 0 mm 1 mps 736 mmHg 77%
    07:00 +23°C° 0 mm 1 mps 736 mmHg 75%
    08:00 +24°C° 0 mm 1 mps 736 mmHg 70%
    09:00 +26°C° 0 mm 1 mps 736 mmHg 65%
    10:00 +28°C° 0 mm 2 mps 736 mmHg 60%
    11:00 +29°C° 0 mm 2 mps 736 mmHg 56%
    12:00 +30°C° 0 mm 2 mps 735 mmHg 52%
    13:00 +31°C° 0 mm 2 mps 735 mmHg 47%
    14:00 +31°C° 0 mm 2 mps 735 mmHg 47%
    15:00 +31°C° 0 mm 2 mps 735 mmHg 47%
    16:00 +32°C° 0 mm 2 mps 735 mmHg 46%
    17:00 +30°C° 0 mm 2 mps 735 mmHg 54%
    18:00 +28°C° 0 mm 2 mps 735 mmHg 62%
    19:00 +26°C° 0 mm 1 mps 735 mmHg 69%
    20:00 +25°C° 0 mm 1 mps 735 mmHg 71%
    21:00 +24°C° 0 mm 1 mps 735 mmHg 73%
    22:00 +22°C° 0 mm 1 mps 736 mmHg 74%
    23:00 +22°C° 0 mm 1 mps 736 mmHg 75%

    Day after tomorrow, 25 July, Thursday

    Time Temperature Precipitation Wind Pressure Humidity
    00:00 +21°C° 0 mm 1 mps 736 mmHg 75%
    01:00 +20°C° 0 mm 1 mps 736 mmHg 76%
    02:00 +20°C° 0 mm 1 mps 736 mmHg 77%
    03:00 +19°C° 0 mm 1 mps 736 mmHg 79%
    04:00 +19°C° 0 mm 1 mps 736 mmHg 80%
    05:00 +20°C° 0 mm 1 mps 736 mmHg 79%
    06:00 +21°C° 0 mm 1 mps 735 mmHg 77%
    07:00 +23°C° 0 mm 1 mps 735 mmHg 75%
    08:00 +24°C° 0 mm 2 mps 736 mmHg 70%
    09:00 +26°C° 0 mm 2 mps 736 mmHg 65%
    10:00 +28°C° 0 mm 2 mps 736 mmHg 60%
    11:00 +29°C° 0 mm 2 mps 735 mmHg 56%
    12:00 +30°C° 0 mm 3 mps 735 mmHg 51%
    13:00 +33°C° 0 mm 3 mps 735 mmHg 47%
    14:00 +33°C° 0 mm 3 mps 735 mmHg 48%
    15:00 +33°C° 0 mm 3 mps 734 mmHg 48%
    16:00 +33°C° 0 mm 3 mps 734 mmHg 49%
    17:00 +30°C° 0 mm 3 mps 734 mmHg 55%
    18:00 +28°C° 0 mm 3 mps 734 mmHg 62%
    19:00 +26°C° 0 mm 2 mps 734 mmHg 68%
    20:00 +25°C° 0 mm 2 mps 734 mmHg 70%
    21:00 +23°C° 0 mm 2 mps 734 mmHg 71%
    22:00 +22°C° 0 mm 1 mps 734 mmHg 73%
    23:00 +21°C° 0 mm 1 mps 734 mmHg 74%

    26 July, Friday

    Time Temperature Precipitation Wind Pressure Humidity
    00:00 +21°C° 0 mm 1 mps 734 mmHg 75%
    01:00 +20°C° 0 mm 1 mps 734 mmHg 77%
    02:00 +20°C° 0 mm 1 mps 733 mmHg 79%
    03:00 +17°C° 0 mm 0 mps 733 mmHg 81%
    04:00 +17°C° 0 mm 0 mps 733 mmHg 84%
    05:00 +18°C° 0 mm 0 mps 733 mmHg 81%
    06:00 +21°C° 0 mm 1 mps 732 mmHg 78%
    07:00 +23°C° 0 mm 1 mps 732 mmHg 75%
    08:00 +24°C° 0 mm 1 mps 732 mmHg 71%
    09:00 +26°C° 0 mm 2 mps 732 mmHg 66%
    10:00 +28°C° 0 mm 2 mps 732 mmHg 62%
    11:00 +29°C° 0 mm 2 mps 732 mmHg 58%
    12:00 +30°C° 0 mm 3 mps 732 mmHg 54%
    13:00 +31°C° 0 mm 3 mps 731 mmHg 49%
    14:00 +31°C° 0 mm 3 mps 731 mmHg 50%
    15:00 +31°C° 0 mm 2 mps 731 mmHg 51%
    16:00 +31°C° 0 mm 2 mps 730 mmHg 51%
    17:00 +29°C° 0 mm 3 mps 730 mmHg 57%
    18:00 +27°C° 0 mm 3 mps 730 mmHg 63%
    19:00 +26°C° 0 mm 3 mps 730 mmHg 70%
    20:00 +25°C° 0 mm 3 mps 730 mmHg 72%
    21:00 +24°C° 0 mm 3 mps 730 mmHg 74%
    22:00 +21°C° 0 mm 2 mps 731 mmHg 76%
    23:00 +21°C° 0 mm 2 mps 730 mmHg 76%

    27 July, Saturday

    Time Temperature Precipitation Wind Pressure Humidity
    00:00 +20°C° 0 mm 2 mps 730 mmHg 77%
    01:00 +19°C° 0 mm 2 mps 730 mmHg 78%
    02:00 +18°C° 0 mm 2 mps 730 mmHg 80%
    03:00 +18°C° 0 mm 2 mps 729 mmHg 82%
    04:00 +17°C° 0 mm 2 mps 729 mmHg 84%
    05:00 +18°C° 0 mm 2 mps 729 mmHg 81%
    06:00 +19°C° 0 mm 2 mps 729 mmHg 79%
    07:00 +20°C° 0 mm 3 mps 729 mmHg 76%
    08:00 +21°C° 0 mm 3 mps 729 mmHg 70%
    09:00 +23°C° 0 mm 4 mps 729 mmHg 65%
    10:00 +26°C° 0 mm 4 mps 729 mmHg 59%
    11:00 +27°C° 0 mm 4 mps 729 mmHg 56%
    12:00 +28°C° 0 mm 4 mps 728 mmHg 53%
    13:00 +28°C° 0 mm 5 mps 728 mmHg 50%
    14:00 +28°C° 0 mm 5 mps 728 mmHg 50%
    15:00 +28°C° 0 mm 5 mps 727 mmHg 51%
    16:00 +28°C° 0 mm 5 mps 727 mmHg 51%
    17:00 +27°C° 0 mm 4 mps 727 mmHg 57%
    18:00 +26°C° 0 mm 4 mps 727 mmHg 62%
    19:00 +24°C° 0 mm 3 mps 727 mmHg 68%
    20:00 +22°C° 0 mm 3 mps 727 mmHg 69%
    21:00 +21°C° 0 mm 3 mps 727 mmHg 70%
    22:00 +20°C° 0 mm 3 mps 727 mmHg 72%
    23:00 +19°C° 0 mm 3 mps 727 mmHg 75%

    28 July, Sunday

    Time Temperature Precipitation Wind Pressure Humidity
    00:00 +19°C° 0 mm 2 mps 727 mmHg 78%
    01:00 +18°C° 0 mm 2 mps 727 mmHg 81%
    02:00 +17°C° 0 mm 2 mps 727 mmHg 83%
    03:00 +17°C° 0 mm 2 mps 727 mmHg 85%
    04:00 +16°C° 0 mm 2 mps 727 mmHg 88%
    05:00 +17°C° 0 mm 2 mps 727 mmHg 85%
    06:00 +18°C° 0 mm 2 mps 727 mmHg 82%
    07:00 +19°C° 0 mm 2 mps 727 mmHg 78%
    08:00 +21°C° 0 mm 2 mps 727 mmHg 73%
    09:00 +24°C° 0 mm 2 mps 727 mmHg 68%
    10:00 +25°C° 0 mm 2 mps 728 mmHg 63%
    11:00 +26°C° 0.3 mm 2 mps 727 mmHg 62%
    12:00 +27°C° 0.3 mm 2 mps 727 mmHg 62%
    13:00 +28°C° 0.3 mm 2 mps 727 mmHg 61%
    14:00 +27°C° 0.6 mm 2 mps 727 mmHg 62%
    15:00 +27°C° 0.6 mm 2 mps 727 mmHg 63%
    16:00 +27°C° 0.6 mm 2 mps 727 mmHg 64%
    17:00 +26°C° 0.4 mm 1 mps 728 mmHg 69%
    18:00 +25°C° 0.4 mm 1 mps 728 mmHg 75%
    19:00 +21°C° 0.4 mm 0 mps 728 mmHg 81%
    20:00 +20°C° 0.2 mm 0 mps 728 mmHg 83%
    21:00 +21°C° 0.2 mm 1 mps 728 mmHg 86%
    22:00 +19°C° 0.2 mm 1 mps 729 mmHg 89%
    23:00 +19°C° 0.1 mm 1 mps 729 mmHg 89%
    Show more